Regional Weather Roundup
Issued by NWS Newport/Morehead, NC

Current Version | Previous Version | Graphics & Text | Print | Product List | Glossary Off
Versions: 1 2 3 4 5 6 7 8 9 10 11 12 13 14 15 16 17 18 19 20 21 22 23 24 25 26 27 28 29 30 31 32 33 34 35 36 37 38 39 40 41 42 43 44 45 46 47 48 49 50

000
ASUS42 KMHX 251413
RWRMHX
WEATHER ROUNDUP FOR EASTERN NORTH CAROLINA
NATIONAL WEATHER SERVICE NEWPORT/MOREHEAD CITY NC
1000 AM EDT MON SEP 25 2017

NOTE: "FAIR" INDICATES FEW OR NO CLOUDS BELOW 12,000 FEET
WITH NO SIGNIFICANT WEATHER AND/OR OBSTRUCTIONS TO VISIBILITY

NCZ015>017-031-032-045>047-102-103-251500-
NORTH COAST

CITY           SKY/WX    TMP DP  RH WIND       PRES   REMARKS
EDENTON        CLOUDY    75  70  84 NE6       29.99R
ELIZABETH CITY CLOUDY    75  71  87 NE20      29.98S
KITTY HAWK     CLOUDY    72  67  84 NE12G18   29.96R
MANTEO         CLOUDY    73  69  87 NE18      29.97R

$$

NCZ045>047-081-094-103-104-251500-
CENTRAL COAST

CITY           SKY/WX    TMP DP  RH WIND       PRES   REMARKS
FRISCO         PTSUNNY   78  73  84 NE12G24   29.91S

$$

NCZ095-097-098-100-101-251500-
SOUTHERN COAST

CITY           SKY/WX    TMP DP  RH WIND       PRES   REMARKS
BEAUFORT       CLOUDY    77  73  87 NE15G25   29.90S
CEDAR ISLAND   NOT AVBL
JACKSONVILLE   CLOUDY    74  70  87 N12       29.92S
PINEY ISLAND   NOT AVBL
WILMINGTON     CLOUDY    73  68  84 N10       29.93R


$$

NCZ011>013-027>030-043-044-078>080-089-090>093-098-251500-
COASTAL PLAIN

CITY           SKY/WX    TMP DP  RH WIND       PRES   REMARKS
AHOSKIE        CLOUDY    71  67  88 N8        30.00S
CLINTON        CLOUDY    70  67  91 N7        29.98R
ELIZABETHTOWN  NOT AVBL
GOLDSBORO      CLOUDY    72  72 100 NE8       29.96S
GREENVILLE     MOSUNNY   75  68  78 NE13      29.98F
HAVELOCK       CLOUDY    77  72  84 NE17      29.93S
KENANSVILLE    CLOUDY    70  66  88 N8        29.96F
KINSTON        CLOUDY    73  68  83 NE9       29.97R
NEW BERN       CLOUDY    76  70  82 NE15      29.95S
RICHLANDS      CLOUDY    73  69  87 NE10      29.95S
ROCKY MOUNT    CLOUDY    71  68  90 NE9       30.00S
WASHINGTON     CLOUDY    74  69  84 NE8G16    29.96F
WHITEVILLE     CLOUDY    69  66  90 N5        29.96R

$$

AMZ130-135-150-152-154-156-158-170-250-252-270-ANZ085-086-088-633-658-670-251500-
MARINE OBSERVATIONS

STATION/POSITION TIME  TEMP    WIND        PRES    WAVE   SWELL
                       AIR SEA DIR/SP/G            HT/PER HT/PER
                 (UTC) (F)     (DEG/KT/KT) (MB)    (FT/S) (FT/S)
CHESAPEAKE LIGHT NOT AVBL
64 E VA BEACH    1350   71 70   40/ 16/ 17 1015.4   13/14  13/14
DUCK             1348   72 76   40/ 19/ 24 1014.7
2 E DUCK         1400      75                N/A     7/13   5/13
OREGON INLET     1336   73 76   30/ 15/ 20 1013.9
13E OREGON INLT  1348      75                N/A     9/15   8/15
HATTERAS CG      1348   75 77   40/ 14/ 23 1012.7
DIAMOND BUOY     1350   75 76   30/ 21/ 25 1011.3   12/15  10/15
CAPE LOOKOUT     1400   76      30/ 25/ 30 1012.1
BEAUFORT LAB     1348   76 75   20/ 14/ 18 1011.9
30 SE NEW RVR IN 1308   77      40/ 21/ 25 1011.1
30 SE NEW RVR IN NOT AVBL
27 SE WRIGHTSVLE 1308   77 80   60/ 21/ 27 1011.2
5 SE WRIGHTSVLE  1308   74 78   30/ 14/ 25 1012.4
225 S CAPE HAT   1350   81 81   10/ 37/ 49  996.0   24/12
41 SE CHARLESTON 1400   77 81  360/ 17/ 21 1011.7

$$




USA.gov is the U.S. government's official web portal to all federal, state and local government web resources and services.